Regional Weather Roundup
Issued by NWS Little Rock, AR

Home | Current Version | Previous Version | Text Only | Print | Product List | Glossary On
Versions: 1 2 3 4 5 6 7 8 9 10 11 12 13 14 15 16 17 18 19 20 21 22 23 24 25 26 27 28 29 30 31 32 33 34 35 36 37 38 39 40 41 42 43 44 45 46 47 48 49 50
000
ASUS44 KLZK 031305
RWRLZK

WEATHER ROUNDUP FOR ARKANSAS
NATIONAL WEATHER SERVICE LITTLE ROCK AR
800 AM CDT SUN MAY 03 2015

NOTE: "FAIR" INDICATES FEW OR NO CLOUDS BELOW 12,000 FEET WITH NO
SIGNIFICANT WEATHER AND/OR OBSTRUCTIONS TO VISIBILITY.

ARZ001-003-010-029-031400-
NORTHWEST ARKANSAS

CITY           SKY/WX    TMP DP  RH WIND       PRES   REMARKS
FAYETTEVILLE   MOSUNNY   62  52  69 CALM      30.03R
FORT SMITH     MOSUNNY   60  53  77 NE6       30.01R
HARRISON       MOSUNNY   58  50  75 SE6       30.04R
BENTONVILLE    MOSUNNY   63  52  67 S6        30.02R
ROGERS         SUNNY     62  51  67 S8        30.03R
SILOAM SPGS    MOSUNNY   64  48  55 S6        30.02R
HIGHFILL       MOSUNNY   62  53  72 S5        30.01R
SPRINGDALE     SUNNY     63  50  63 S8        30.04R
$$

ARZ004-005-016-031400-
NORTH CENTRAL ARKANSAS

CITY           SKY/WX    TMP DP  RH WIND       PRES   REMARKS
BATESVILLE     SUNNY     61  46  59 S3        30.06R
FLIPPIN        MOSUNNY   57  48  72 CALM      30.03R
MTN HOME       PTSUNNY   62  45  53 S5        30.04R
$$

ARZ040-041-031400-
WEST CENTRAL ARKANSAS

CITY           SKY/WX    TMP DP  RH WIND       PRES   REMARKS
MENA           SUNNY     59  54  82 CALM      30.06R
MOUNT IDA      SUNNY     55  52  89 CALM      30.02R
$$

ARZ009-017-025-026-028-031400-
NORTHEAST ARKANSAS

CITY           SKY/WX    TMP DP  RH WIND       PRES   REMARKS
CORNING          N/A     59  50  72 CALM      30.08R
JONESBORO      PTSUNNY   56  50  80 CALM      30.07R
NEWPORT        MOSUNNY   58  51  77 S7        30.08R
WALNUT RIDGE   PTSUNNY   57  46  67 S6        30.07R
BLYTHEVILLE    PTSUNNY   62  52  69 S7        30.09R
$$

ARZ022-023-033-042-044-031400-
CENTRAL ARKANSAS

CITY           SKY/WX    TMP DP  RH WIND       PRES   REMARKS
LITTLE ROCK    MOSUNNY   60  48  64 CALM      30.06R
N LITTLE ROCK    N/A     62  48  60 SW7       30.06
JACKSONVILLE   SUNNY     56  52  87 NE2       30.05R
SEARCY         SUNNY     57  52  83 CALM      30.08R
HOT SPRINGS    SUNNY     62  52  69 E5        30.05R
RUSSELLVILLE   SUNNY     60  51  72 CALM      30.04R
CLINTON        FAIR      50  50 100 CALM      30.09R
$$

ARZ036-031400-
EAST ARKANSAS

CITY           SKY/WX    TMP DP  RH WIND       PRES   REMARKS
WEST MEMPHIS   SUNNY     61  55  81 S3        30.08R
$$

ARZ050-053-066-070-073-031400-
SOUTHWEST ARKANSAS

CITY           SKY/WX    TMP DP  RH WIND       PRES   REMARKS
ARKADELPHIA    FAIR      59  55  86 CALM      30.06R
CAMDEN         SUNNY     59  52  77 CALM      30.05R
TEXARKANA      SUNNY     66  57  72 SW7       30.04R
EL DORADO      SUNNY     61  54  77 S5        30.06R
DE QUEEN       SUNNY     59  56  89 CALM      30.03R
$$

ARZ056-057-069-031400-
SOUTHEAST ARKANSAS

CITY           SKY/WX    TMP DP  RH WIND       PRES   REMARKS
PINE BLUFF     MOSUNNY   58  54  86 CALM      30.07R
STUTTGART      SUNNY     63  50  63 S6        30.07R
MONTICELLO     MOSUNNY   63  48  58 S7        30.06R

$$





USA.gov is the U.S. government's official web portal to all federal, state and local government web resources and services.